QPF
0.00 0.00 0.00 0.00 0.00 0.00 0.00 0.00 0.00 0.00 0.00 0.00 0.00 0.00 0.00 0.00 0.00 0.00 0.00 0.00 0.00 0.00 0.00 0.00 0.00 0.00 0.00 0.00 0.00 0.00 0.00 0.00 0.00 0.00 0.00 0.00 0.00 0.00 0.00 0.00 0.00 0.00 0.00 0.00 0.00 0.00 0.00
0.00 0.00 0.00 0.00 0.00 0.00 0.00 0.00 0.00 0.00 0.00 0.00 0.00 0.00 0.00 0.00 0.00 0.00 0.00 0.00 0.00 0.00 0.00 0.00 0.00 0.00 0.00 0.00 0.00 0.00 0.00 0.00 0.00 0.00 0.00 0.00 0.00 0.00 0.00 0.00 0.00 0.00 0.00 0.00 0.00 0.00 0.00
0.00 0.00 0.00 0.00 0.00 0.00 0.00 0.00 0.00 0.00 0.00 0.00 0.00 0.00 0.00 0.00 0.00 0.00 0.00 0.00 0.00 0.00 0.00 0.00 0.00 0.00 0.00 0.00 0.00 0.00 0.00 0.00 0.00 0.00 0.00 0.00 0.00 0.00 0.00 0.00 0.00 0.00 0.00 0.00 0.00 0.00 0.00
0.00 0.00 0.00 0.00 0.00 0.00 0.00 0.00 0.00 0.00 0.00 0.00 0.00 0.00 0.00 0.00 0.00 0.00 0.00 0.00 0.00 0.00 0.00 0.00 0.00 0.00 0.00 0.00 0.00 0.00 0.00 0.00 0.00 0.00 0.00 0.00 0.00 0.00 0.00 0.00 0.00 0.00 0.00 0.00 0.00 0.00 0.00
0.00 0.00 0.00 0.00 0.00 0.00 0.00 0.00 0.00 0.00 0.00 0.00 0.00 0.00 0.00 0.00 0.00 0.00 0.00 0.00 0.00 0.00 0.00 0.00 0.00 0.00 0.00 0.00 0.00 0.00 0.00 0.00 0.00 0.00 0.00 0.00 0.00 0.00 0.00 0.00 0.00 0.00 0.00 0.00 0.00 0.00 0.00
0.00 0.00 0.00 0.00 0.00 0.00 0.00 0.00 0.00 0.00 0.00 0.00 0.00 0.00 0.00 0.00 0.00 0.00 0.00 0.00 0.00 0.00 0.00 0.00 0.00 0.00 0.00 0.00 0.00 0.00 0.00 0.00 0.00 0.00 0.00 0.00 0.00 0.00 0.00 0.00 0.00 0.00 0.00 0.00 0.00 0.00 0.00
0.00 0.00 0.00 0.00 0.00 0.00 0.00 0.00 0.00 0.00 0.00 0.00 0.00 0.00 0.00 0.00 0.00 0.00 0.00 0.00 0.00 0.00 0.00 0.00 0.00 0.00 0.00 0.00 0.00 0.00 0.00 0.00 0.00 0.00 0.00 0.00 0.00 0.00 0.00 0.00 0.00 0.00 0.00 0.00 0.00 0.00 0.00
0.00 0.00 0.00 0.00 0.00 0.00 0.00 0.00 0.00 0.00 0.00 0.00 0.00 0.00 0.00 0.00 0.00 0.00 0.00 0.00 0.00 0.00 0.00 0.00 0.00 0.00 0.00 0.00 0.00 0.00 0.00 0.00 0.00 0.00 0.00 0.00 0.00 0.00 0.00 0.00 0.00 0.00 0.00 0.00 0.00 0.00 0.00
0.00 0.00 0.00 0.00 0.00 0.00 0.00 0.00 0.00 0.00 0.00 0.00 0.00 0.00 0.00 0.00 0.00 0.00 0.00 0.00 0.00 0.00 0.00 0.00 0.00 0.00 0.00 0.00 0.00 0.00 0.00 0.00 0.00 0.00 0.00 0.00 0.00 0.00 0.00 0.00 0.00 0.00 0.00 0.00 0.00 0.00 0.00
0.00 0.00 0.00 0.00 0.00 0.00 0.00 0.00 0.00 0.00 0.00 0.00 0.00 0.00 0.00 0.00 0.00 0.00 0.00 0.00 0.00 0.00 0.00 0.00 0.00 0.00 0.00 0.00 0.00 0.00 0.00 0.00 0.00 0.00 0.00 0.00 0.00 0.00 0.00 0.00 0.00 0.00 0.00 0.00 0.00 0.00 0.00
0.00 0.00 0.00 0.00 0.00 0.00 0.00 0.00 0.00 0.00 0.00 0.00 0.00 0.00 0.00 0.00 0.00 0.00 0.00 0.00 0.00 0.00 0.00 0.00 0.00 0.00 0.00 0.00 0.00 0.00 0.00 0.00 0.00 0.00 0.00 0.00 0.00 0.00 0.00 0.00 0.00 0.00 0.00 0.00 0.00 0.00 0.00
0.00 0.00 0.00 0.00 0.00 0.00 0.00 0.00 0.00 0.00 0.00 0.00 0.00 0.00 0.00 0.00 0.00 0.00 0.00 0.00 0.00 0.00 0.00 0.00 0.00 0.00 0.00 0.00 0.00 0.00 0.00 0.00 0.00 0.00 0.00 0.00 0.00 0.00 0.00 0.00 0.00 0.00 0.00 0.00 0.00 0.00 0.00
0.00 0.00 0.00 0.00 0.00 0.00 0.00 0.00 0.00 0.00 0.00 0.00 0.00 0.00 0.00 0.00 0.00 0.00 0.00 0.00 0.00 0.00 0.00 0.00 0.00 0.00 0.00 0.00 0.00 0.00 0.00 0.00 0.00 0.00 0.00 0.00 0.00 0.00 0.00 0.00 0.00 0.00 0.00 0.00 0.00 0.00 0.00
0.00 0.00 0.00 0.00 0.00 0.00 0.00 0.00 0.00 0.00 0.00 0.00 0.00 0.00 0.00 0.00 0.00 0.00 0.00 0.00 0.00 0.00 0.00 0.00 0.00 0.00 0.00 0.00 0.00 0.00 0.00 0.00 0.00 0.00 0.00 0.00 0.00 0.00 0.00 0.00 0.00 0.00 0.00 0.00 0.00 0.00 0.00
0.00 0.00 0.00 0.00 0.00 0.00 0.00 0.00 0.00 0.00 0.00 0.00 0.00 0.00 0.00 0.00 0.00 0.00 0.00 0.00 0.00 0.00 0.00 0.00 0.00 0.00 0.00 0.00 0.00 0.00 0.00 0.00 0.00 0.00 0.00 0.00 0.00 0.00 0.00 0.00 0.00 0.00 0.00 0.00 0.00 0.00 0.00
0.00 0.00 0.00 0.00 0.00 0.00 0.00 0.00 0.00 0.00 0.00 0.00 0.00 0.00 0.00 0.00 0.00 0.00 0.00 0.00 0.00 0.00 0.00 0.00 0.00 0.00 0.00 0.00 0.00 0.00 0.00 0.00 0.00 0.00 0.00 0.00 0.00 0.00 0.00 0.00 0.00 0.00 0.00 0.00 0.00 0.00 0.00
0.00 0.00 0.00 0.00 0.00 0.00 0.00 0.00 0.00 0.00 0.00 0.00 0.00 0.00 0.00 0.00 0.00 0.00 0.00 0.00 0.00 0.00 0.00 0.00 0.00 0.00 0.00 0.00 0.00 0.00 0.00 0.00 0.00 0.00 0.00 0.00 0.00 0.00 0.00 0.00 0.00 0.00 0.00 0.00 0.00 0.00 0.00
0.00 0.00 0.00 0.00 0.00 0.00 0.00 0.00 0.00 0.00 0.00 0.00 0.00 0.00 0.00 0.00 0.00 0.00 0.00 0.00 0.00 0.00 0.00 0.00 0.00 0.00 0.00 0.00 0.00 0.00 0.00 0.00 0.00 0.00 0.00 0.00 0.00 0.00 0.00 0.00 0.00 0.00 0.00 0.00 0.00 0.00 0.00
0.00 0.00 0.00 0.00 0.00 0.00 0.00 0.00 0.00 0.00 0.00 0.00 0.00 0.00 0.00 0.00 0.00 0.00 0.00 0.00 0.00 0.00 0.00 0.00 0.00 0.00 0.00 0.00 0.00 0.00 0.00 0.00 0.00 0.00 0.00 0.00 0.00 0.00 0.00 0.00 0.00 0.00 0.00 0.00 0.00 0.00 0.00
0.00 0.00 0.00 0.00 0.00 0.00 0.00 0.00 0.00 0.00 0.00 0.00 0.00 0.00 0.00 0.00 0.00 0.00 0.00 0.00 0.00 0.00 0.00 0.00 0.00 0.00 0.00 0.00 0.00 0.00 0.00 0.00 0.00 0.00 0.00 0.00 0.00 0.00 0.00 0.00 0.00 0.00 0.00 0.00 0.00 0.00 0.00
0.00 0.00 0.00 0.00 0.00 0.00 0.00 0.00 0.00 0.00 0.00 0.00 0.00 0.00 0.00 0.00 0.00 0.00 0.00 0.00 0.00 0.00 0.00 0.00 0.00 0.00 0.00 0.00 0.00 0.00 0.00 0.00 0.00 0.00 0.00 0.00 0.00 0.00 0.00 0.00 0.00 0.00 0.00 0.00 0.00 0.00 0.00
0.00 0.00 0.00 0.00 0.00 0.00 0.00 0.00 0.00 0.00 0.00 0.00 0.00 0.00 0.00 0.00 0.00 0.00 0.00 0.00 0.00 0.00 0.00 0.00 0.00 0.00 0.00 0.00 0.00 0.00 0.00 0.00 0.00 0.00 0.00 0.00 0.00 0.00 0.00 0.00 0.00 0.00 0.00 0.00 0.00 0.00 0.00
0.00 0.00 0.00 0.00 0.00 0.00 0.00 0.00 0.00 0.00 0.00 0.00 0.00 0.00 0.00 0.00 0.00 0.00 0.00 0.00 0.00 0.00 0.00 0.00 0.00 0.00 0.00 0.00 0.00 0.00 0.00 0.00 0.00 0.00 0.00 0.00 0.00 0.00 0.00 0.00 0.00 0.00 0.00 0.00 0.00 0.00 0.00
0.00 0.00 0.00 0.00 0.00 0.00 0.00 0.00 0.00 0.00 0.00 0.00 0.00 0.00 0.00 0.00 0.00 0.00 0.00 0.00 0.00 0.00 0.00 0.00 0.00 0.00 0.00 0.00 0.00 0.00 0.00 0.00 0.00 0.00 0.00 0.00 0.00 0.00 0.00 0.00 0.00 0.00 0.00 0.00 0.00 0.00 0.00
0.00 0.00 0.00 0.00 0.00 0.00 0.00 0.00 0.00 0.00 0.00 0.00 0.00 0.00 0.00 0.00 0.00 0.00 0.00 0.00 0.00 0.00 0.00 0.00 0.00 0.00 0.00 0.00 0.00 0.00 0.00 0.00 0.00 0.00 0.00 0.00 0.00 0.00 0.00 0.00 0.00 0.00 0.00 0.00 0.00 0.00 0.00
0.00 0.00 0.00 0.00 0.00 0.00 0.00 0.00 0.00 0.00 0.00 0.00 0.00 0.00 0.00 0.00 0.00 0.00 0.00 0.00 0.00 0.00 0.00 0.00 0.00 0.00 0.00 0.00 0.00 0.00 0.00 0.00 0.00 0.00 0.00 0.00 0.00 0.00 0.00 0.01 0.00 0.00 0.00 0.00 0.00 0.00 0.00
0.00 0.00 0.00 0.00 0.00 0.00 0.00 0.00 0.00 0.00 0.00 0.00 0.00 0.00 0.00 0.00 0.00 0.00 0.00 0.00 0.00 0.00 0.00 0.00 0.00 0.00 0.00 0.00 0.00 0.00 0.00 0.00 0.00 0.00 0.00 0.00 0.00 0.00 0.00 0.00 0.00 0.00 0.00 0.00 0.01 0.01 0.00
0.00 0.00 0.00 0.00 0.00 0.00 0.00 0.00 0.00 0.00 0.00 0.00 0.00 0.00 0.00 0.00 0.00 0.00 0.00 0.00 0.00 0.00 0.00 0.00 0.00 0.00 0.00 0.00 0.00 0.00 0.00 0.00 0.00 0.00 0.00 0.00 0.00 0.00 0.01 0.01 0.00 0.00 0.00 0.01 0.01 0.00 0.00
0.00 0.00 0.00 0.00 0.00 0.00 0.00 0.00 0.00 0.00 0.00 0.00 0.00 0.00 0.00 0.00 0.00 0.00 0.00 0.00 0.00 0.00 0.00 0.00 0.00 0.00 0.00 0.00 0.00 0.00 0.00 0.00 0.00 0.00 0.00 0.00 0.00 0.00 0.01 0.00 0.00 0.00 0.00 0.00 0.00 0.00 0.00
MSLP
1019.39 1019.07 1018.62 1018.23 1017.66 1017.53 1017.17 1016.76 1016.37 1016.21 1016.12 1016.04 1016.04 1015.87 1015.88 1016.00 1015.91 1016.00 1016.19 1016.18 1016.10 1015.96 1015.89 1015.69 1015.37 1015.23 1014.66 1012.93 1012.26 1011.82 1012.02 1011.62 1011.21 1011.01 1010.47 1010.25 1009.99 1009.85 1009.86 1010.43 1010.76 1010.91 1011.75 1012.00 1012.52 1012.65 1012.55
1019.18 1018.76 1018.41 1017.94 1017.56 1017.19 1016.79 1016.29 1016.00 1015.94 1015.74 1015.63 1015.55 1015.55 1015.63 1015.73 1015.72 1015.76 1015.89 1015.88 1015.76 1015.72 1015.59 1015.59 1015.41 1015.23 1014.09 1012.64 1012.48 1012.23 1012.12 1011.49 1010.99 1010.55 1010.49 1010.43 1010.39 1010.24 1010.65 1010.73 1010.56 1011.94 1011.94 1012.51 1012.71 1012.66 1012.94
1018.95 1018.49 1018.24 1017.71 1017.40 1017.07 1016.57 1016.07 1015.77 1015.57 1015.31 1015.34 1015.26 1015.29 1015.37 1015.36 1015.42 1015.58 1015.64 1015.55 1015.66 1015.48 1015.63 1015.61 1015.36 1014.89 1013.00 1012.65 1012.35 1012.22 1011.97 1011.55 1011.47 1011.10 1010.72 1011.12 1010.97 1010.53 1010.83 1011.16 1012.08 1012.14 1011.89 1012.32 1012.70 1012.68 1012.63
1018.71 1018.23 1017.99 1017.43 1017.15 1016.76 1016.26 1015.73 1015.69 1015.37 1015.06 1014.99 1015.03 1014.95 1015.04 1015.22 1015.37 1015.40 1015.38 1015.49 1015.47 1015.57 1015.47 1015.23 1015.25 1014.03 1012.79 1012.63 1012.34 1012.24 1011.73 1011.62 1011.63 1011.52 1011.48 1011.67 1011.33 1011.19 1011.28 1011.87 1012.08 1011.80 1011.82 1011.33 1012.77 1012.88 1012.87
1018.51 1018.04 1017.72 1017.32 1016.85 1016.47 1015.97 1015.57 1015.46 1015.21 1015.02 1014.83 1014.90 1014.93 1015.00 1015.04 1015.09 1015.27 1015.46 1015.39 1015.35 1015.22 1015.22 1015.15 1014.43 1013.25 1012.53 1012.37 1012.25 1012.22 1012.04 1011.60 1011.70 1011.78 1011.88 1011.93 1011.66 1011.65 1012.11 1011.31 1011.14 1011.45 1011.17 1012.00 1012.68 1013.16 1012.76
1018.35 1017.87 1017.54 1017.28 1016.71 1016.29 1015.83 1015.39 1015.41 1015.17 1014.94 1014.93 1014.83 1014.79 1014.77 1014.85 1015.06 1015.20 1015.21 1015.13 1015.02 1015.09 1014.72 1014.18 1013.73 1013.03 1012.62 1012.49 1012.35 1012.36 1012.29 1012.19 1011.76 1011.75 1011.57 1011.61 1011.45 1011.20 1011.17 1010.96 1010.78 1011.58 1012.01 1012.67 1012.60 1013.08 1012.92
1018.23 1017.76 1017.61 1017.25 1016.57 1016.01 1015.77 1015.52 1015.10 1015.08 1014.93 1014.61 1014.58 1014.68 1014.70 1014.71 1014.86 1015.03 1015.23 1014.93 1014.99 1014.30 1013.66 1013.82 1013.46 1012.92 1012.73 1012.64 1012.73 1012.30 1012.55 1012.13 1011.76 1011.56 1011.32 1012.02 1011.33 1011.68 1012.33 1012.58 1012.70 1012.77 1012.81 1012.80 1013.15 1013.80 1013.56
1018.09 1017.70 1017.57 1017.34 1016.70 1016.14 1015.67 1015.56 1015.22 1014.98 1014.74 1014.66 1014.58 1014.50 1014.46 1014.60 1014.84 1015.05 1014.79 1013.83 1014.32 1014.28 1014.01 1013.89 1013.53 1013.19 1013.07 1012.97 1012.24 1012.35 1012.38 1012.08 1011.78 1011.69 1012.21 1012.15 1012.59 1013.48 1013.67 1013.65 1013.52 1013.48 1013.38 1013.45 1013.84 1014.23 1014.15
1017.93 1017.67 1017.47 1017.18 1016.67 1016.35 1015.74 1015.36 1015.18 1014.98 1014.82 1014.60 1014.36 1014.37 1014.38 1014.54 1014.75 1014.79 1014.20 1014.60 1014.53 1014.11 1013.38 1013.83 1013.66 1013.17 1013.17 1012.98 1013.10 1013.12 1012.94 1012.82 1012.38 1012.43 1012.46 1012.58 1013.97 1014.44 1014.28 1014.13 1013.96 1014.01 1014.09 1014.45 1014.44 1014.32 1014.25
1017.79 1017.61 1017.51 1017.27 1016.83 1016.43 1015.90 1015.48 1015.23 1014.97 1014.66 1014.53 1014.46 1014.20 1014.21 1014.52 1015.00 1014.56 1014.54 1014.85 1014.57 1014.36 1013.39 1014.00 1013.38 1013.25 1013.24 1013.18 1013.48 1013.97 1013.94 1013.65 1013.35 1013.42 1013.44 1014.01 1014.82 1014.72 1014.57 1014.66 1014.82 1014.41 1015.18 1015.18 1014.74 1014.19 1012.87
1017.68 1017.63 1017.38 1017.11 1016.75 1016.39 1015.89 1015.49 1015.12 1014.83 1014.74 1014.68 1014.42 1014.08 1014.08 1014.20 1014.05 1014.30 1015.00 1014.83 1014.55 1014.35 1013.47 1014.39 1013.49 1013.51 1013.46 1013.45 1014.10 1014.08 1014.46 1013.57 1013.75 1014.05 1014.21 1014.90 1014.90 1014.88 1014.81 1015.37 1015.50 1015.36 1015.71 1015.34 1014.90 1014.14 1013.72
1017.52 1017.55 1017.48 1017.17 1016.75 1016.32 1015.81 1015.42 1015.03 1014.86 1014.78 1014.53 1014.27 1014.13 1014.14 1013.90 1014.14 1015.10 1015.02 1014.80 1014.51 1014.10 1014.01 1014.12 1013.74 1013.59 1013.65 1014.11 1014.45 1014.33 1014.32 1014.29 1014.96 1014.50 1014.46 1015.14 1015.68 1015.58 1015.71 1015.83 1015.91 1015.92 1015.63 1015.36 1015.07 1014.53 1014.00
1017.35 1017.35 1017.27 1017.06 1016.71 1016.27 1015.84 1015.41 1015.09 1014.85 1014.73 1014.58 1014.44 1014.19 1013.97 1014.16 1014.63 1015.13 1014.95 1014.37 1014.04 1013.70 1014.85 1014.29 1013.99 1014.02 1014.18 1014.64 1014.99 1015.20 1015.23 1015.38 1015.26 1015.01 1015.06 1015.42 1015.71 1016.03 1016.25 1015.57 1015.84 1015.34 1015.11 1014.69 1014.84 1014.53 1014.01
1017.21 1017.26 1017.17 1017.05 1016.66 1016.25 1015.91 1015.55 1015.21 1014.89 1014.74 1014.64 1014.55 1014.22 1015.12 1014.99 1015.08 1015.03 1014.55 1014.10 1013.90 1014.50 1014.32 1014.58 1014.41 1014.51 1014.61 1015.33 1015.81 1015.95 1015.84 1015.99 1016.56 1016.22 1015.81 1015.77 1016.00 1016.53 1017.00 1016.81 1016.57 1016.29 1016.27 1016.03 1015.76 1015.42 1015.09
1017.18 1017.13 1017.18 1017.07 1016.65 1016.31 1015.96 1015.64 1015.34 1015.00 1014.83 1014.78 1014.63 1014.62 1014.70 1015.42 1015.28 1015.04 1014.35 1013.95 1014.18 1014.33 1014.50 1014.34 1014.60 1014.57 1015.21 1015.77 1015.95 1016.37 1017.01 1017.26 1017.74 1017.57 1017.05 1016.93 1016.94 1017.49 1017.68 1017.53 1017.51 1016.86 1016.95 1017.77 1017.36 1017.64 1016.77
1017.00 1017.14 1017.15 1017.02 1016.72 1016.39 1016.06 1015.79 1015.54 1015.22 1014.95 1014.80 1014.40 1014.44 1015.07 1015.59 1015.39 1014.90 1014.30 1014.58 1014.87 1015.16 1014.99 1014.71 1014.47 1015.12 1015.25 1015.96 1016.31 1016.75 1017.45 1018.54 1018.54 1018.81 1018.58 1018.38 1017.89 1018.06 1018.11 1018.10 1017.96 1017.53 1018.16 1017.93 1017.77 1017.74 1016.86
1016.94 1016.96 1017.09 1017.08 1016.85 1016.56 1016.20 1015.97 1015.64 1015.34 1014.95 1014.76 1014.52 1014.29 1015.52 1015.55 1015.43 1014.60 1014.25 1014.96 1015.34 1015.65 1015.42 1015.12 1015.12 1015.52 1015.97 1016.44 1016.86 1017.40 1018.29 1019.11 1019.14 1019.24 1019.08 1018.97 1018.90 1018.57 1018.55 1018.28 1018.18 1018.12 1018.08 1018.46 1018.57 1018.88 1018.18
1016.81 1016.95 1017.05 1017.03 1016.98 1016.77 1016.38 1016.09 1015.71 1015.36 1014.92 1014.81 1014.56 1014.29 1015.67 1015.70 1015.12 1015.27 1014.90 1015.22 1015.75 1015.76 1015.72 1015.68 1015.83 1016.06 1016.43 1017.11 1017.53 1017.99 1018.55 1019.02 1019.72 1019.63 1019.36 1019.89 1019.54 1018.77 1018.73 1019.23 1019.22 1018.98 1018.91 1018.99 1019.02 1019.28 1019.28
1016.76 1016.96 1017.03 1017.11 1017.03 1016.88 1016.54 1016.20 1015.71 1015.35 1014.94 1014.49 1014.19 1014.75 1015.54 1015.34 1014.88 1015.26 1015.69 1015.78 1015.97 1015.90 1016.05 1016.00 1016.35 1016.58 1017.08 1017.50 1018.10 1018.56 1019.16 1020.09 1020.06 1019.97 1020.08 1020.26 1020.03 1019.32 1019.17 1019.61 1019.45 1019.05 1019.30 1019.77 1020.07 1020.33 1019.47
1016.66 1016.91 1016.99 1017.03 1017.08 1016.88 1016.59 1016.24 1015.76 1015.36 1015.01 1014.62 1014.34 1014.67 1015.16 1015.14 1015.31 1014.83 1015.21 1015.74 1016.09 1016.48 1016.57 1016.55 1016.86 1017.01 1017.34 1017.88 1018.29 1018.83 1019.47 1020.30 1020.58 1020.70 1021.16 1020.99 1020.45 1020.05 1019.68 1019.14 1019.47 1019.27 1019.37 1019.78 1019.95 1019.97 1018.86
1016.46 1016.73 1016.89 1017.18 1017.03 1016.91 1016.63 1016.22 1015.78 1015.33 1015.04 1014.86 1014.79 1015.30 1015.78 1015.51 1015.51 1015.21 1015.39 1015.77 1015.91 1016.37 1016.80 1016.83 1017.04 1017.11 1017.38 1018.08 1018.54 1019.02 1019.58 1020.29 1020.82 1021.33 1021.26 1021.02 1020.87 1020.78 1020.49 1020.17 1019.71 1019.66 1019.59 1019.46 1019.35 1019.10 1018.90
1016.21 1016.54 1016.88 1017.02 1016.98 1016.91 1016.60 1016.20 1015.76 1015.30 1015.04 1014.84 1015.11 1015.48 1016.18 1016.14 1016.01 1015.64 1016.03 1015.97 1015.97 1016.66 1016.67 1016.92 1016.95 1017.68 1017.85 1018.17 1018.53 1019.04 1019.46 1020.05 1020.35 1021.24 1021.42 1021.80 1021.86 1022.20 1021.60 1021.00 1020.31 1019.74 1019.14 1018.87 1018.89 1018.69 1018.41
1016.08 1016.50 1016.77 1016.88 1017.03 1016.92 1016.64 1016.23 1015.70 1015.18 1014.93 1014.71 1016.02 1016.14 1015.73 1016.93 1016.56 1016.09 1016.12 1016.14 1016.34 1016.62 1017.58 1017.44 1017.52 1018.10 1018.85 1019.16 1019.37 1019.85 1020.25 1020.56 1020.82 1021.29 1021.94 1022.49 1022.90 1023.23 1022.64 1022.13 1020.92 1019.84 1018.62 1018.39 1018.45 1018.36 1018.48
1016.05 1016.50 1016.89 1017.02 1016.96 1017.00 1016.70 1016.27 1015.79 1015.25 1014.84 1014.74 1015.71 1015.83 1016.18 1017.36 1016.94 1016.42 1016.39 1016.41 1016.73 1017.09 1017.38 1018.39 1018.53 1018.85 1020.14 1020.36 1020.61 1020.88 1021.26 1021.61 1021.79 1022.35 1022.80 1023.50 1024.09 1024.59 1024.10 1023.15 1021.40 1019.29 1018.80 1018.60 1018.59 1018.32 1018.17
1015.93 1016.39 1016.73 1016.94 1017.04 1017.08 1016.87 1016.38 1016.08 1015.64 1015.34 1015.13 1016.13 1016.10 1016.34 1017.61 1017.39 1017.18 1016.87 1016.97 1017.52 1017.94 1018.49 1019.01 1019.93 1020.59 1020.49 1020.65 1021.11 1021.92 1022.03 1022.51 1022.69 1023.18 1023.47 1023.86 1024.50 1025.06 1024.83 1023.52 1021.27 1019.24 1018.48 1018.64 1018.80 1018.43 1018.37
1015.85 1016.27 1016.64 1016.82 1017.08 1017.19 1017.05 1016.66 1016.46 1016.09 1015.79 1015.71 1016.55 1016.73 1016.38 1017.14 1017.69 1017.20 1017.21 1017.39 1017.61 1018.23 1019.19 1020.26 1021.09 1021.30 1021.13 1021.57 1022.32 1022.70 1022.57 1022.53 1022.53 1023.31 1024.43 1024.64 1024.93 1024.92 1024.99 1023.79 1021.23 1019.02 1019.04 1019.46 1019.41 1018.68 1019.36
1015.85 1016.25 1016.56 1016.80 1017.05 1017.12 1017.20 1017.01 1016.81 1016.48 1016.11 1015.76 1016.72 1017.00 1016.34 1017.21 1018.08 1017.88 1017.53 1017.49 1017.96 1018.23 1019.07 1020.29 1021.01 1021.60 1021.75 1022.51 1023.42 1023.66 1023.19 1023.05 1022.70 1022.97 1023.73 1024.55 1024.73 1024.60 1024.09 1022.99 1020.85 1019.37 1019.71 1019.79 1019.86 1020.20 1020.43
1015.77 1016.18 1016.55 1016.79 1016.95 1017.13 1017.24 1017.27 1017.05 1016.72 1016.46 1016.14 1017.10 1017.13 1016.74 1017.59 1018.30 1018.32 1018.18 1017.98 1018.19 1018.02 1018.55 1020.28 1021.01 1021.80 1022.52 1023.14 1023.89 1024.06 1023.97 1023.16 1022.94 1022.36 1022.49 1022.55 1023.31 1023.39 1023.36 1022.23 1020.53 1019.80 1020.03 1020.36 1020.55 1020.61 1020.87
1015.70 1016.10 1016.47 1016.69 1016.92 1017.19 1017.33 1017.41 1017.25 1017.05 1016.73 1016.50 1016.75 1017.38 1017.34 1017.36 1018.78 1019.01 1018.87 1018.76 1018.47 1018.17 1018.43 1019.73 1019.90 1020.37 1021.13 1022.29 1023.71 1024.22 1024.14 1023.84 1023.05 1022.31 1022.14 1021.66 1021.40 1021.45 1021.43 1019.97 1019.26 1019.47 1019.99 1020.30 1020.53 1021.23 1022.08
Thickness
5581 5584 5588 5593 5599 5600 5602 5605 5608 5608 5609 5611 5613 5616 5618 5623 5628 5632 5634 5639 5645 5650 5654 5660 5666 5670 5679 5684 5682 5702 5704 5706 5711 5713 5711 5710 5707 5706 5697 5699 5702 5695 5694 5698 5697 5695 5697
5579 5583 5587 5592 5597 5601 5604 5607 5608 5608 5610 5613 5617 5619 5622 5625 5629 5634 5638 5642 5649 5654 5659 5662 5668 5672 5682 5671 5695 5699 5702 5710 5713 5716 5713 5715 5709 5715 5703 5700 5702 5695 5695 5693 5694 5694 5692
5578 5581 5586 5591 5596 5600 5604 5607 5610 5612 5614 5616 5619 5620 5623 5628 5633 5637 5641 5648 5652 5658 5660 5664 5669 5675 5685 5679 5700 5703 5707 5711 5714 5716 5711 5714 5715 5713 5710 5696 5698 5696 5691 5696 5692 5696 5692
5576 5580 5585 5591 5596 5600 5605 5609 5610 5613 5617 5619 5620 5624 5627 5631 5634 5640 5647 5651 5656 5659 5664 5669 5672 5682 5677 5699 5703 5705 5713 5712 5717 5718 5715 5715 5718 5709 5705 5701 5696 5694 5697 5690 5689 5694 5692
5574 5579 5584 5591 5596 5600 5605 5608 5611 5614 5618 5621 5623 5626 5629 5634 5640 5645 5649 5654 5659 5664 5668 5672 5682 5687 5678 5704 5699 5708 5712 5710 5713 5714 5714 5714 5713 5701 5698 5697 5693 5695 5685 5681 5682 5688 5689
5572 5578 5583 5589 5595 5600 5604 5609 5611 5615 5618 5621 5625 5630 5635 5641 5645 5649 5654 5659 5665 5668 5673 5680 5686 5683 5691 5687 5701 5706 5711 5710 5708 5708 5707 5706 5706 5702 5703 5700 5680 5680 5678 5675 5676 5683 5686
5570 5576 5581 5586 5595 5600 5603 5606 5614 5616 5619 5626 5631 5635 5641 5647 5651 5655 5657 5666 5669 5671 5680 5674 5677 5682 5688 5699 5704 5703 5706 5706 5709 5705 5693 5694 5693 5683 5684 5685 5685 5682 5676 5675 5679 5677 5675
5569 5575 5580 5584 5591 5598 5603 5605 5612 5618 5624 5630 5636 5641 5647 5651 5654 5657 5665 5672 5671 5678 5666 5678 5682 5686 5692 5697 5693 5699 5709 5698 5697 5687 5689 5689 5672 5677 5679 5679 5677 5675 5671 5670 5673 5672 5668
5567 5572 5578 5584 5590 5594 5602 5609 5615 5621 5627 5635 5641 5646 5651 5654 5658 5662 5669 5668 5673 5680 5675 5673 5680 5684 5688 5696 5683 5687 5697 5692 5688 5681 5684 5679 5669 5671 5671 5671 5670 5669 5665 5660 5659 5668 5669
5566 5570 5575 5582 5589 5594 5602 5610 5617 5624 5632 5639 5644 5650 5655 5657 5658 5664 5665 5670 5675 5679 5667 5661 5674 5683 5689 5690 5678 5688 5689 5686 5680 5671 5677 5669 5667 5666 5668 5662 5664 5662 5661 5658 5658 5660 5669
5564 5567 5575 5582 5589 5595 5603 5612 5621 5629 5634 5640 5647 5654 5658 5662 5666 5667 5665 5671 5677 5678 5644 5662 5673 5691 5686 5679 5675 5677 5684 5686 5671 5667 5671 5656 5661 5662 5661 5655 5658 5655 5654 5654 5655 5659 5660
5562 5567 5572 5578 5587 5595 5605 5614 5623 5630 5636 5643 5650 5655 5659 5664 5666 5662 5667 5672 5675 5659 5636 5657 5672 5669 5671 5672 5669 5676 5675 5681 5671 5668 5670 5659 5662 5661 5656 5656 5654 5654 5652 5652 5652 5653 5643
5562 5567 5572 5578 5586 5595 5605 5614 5623 5631 5638 5644 5649 5655 5661 5663 5663 5663 5668 5673 5656 5647 5655 5654 5659 5666 5663 5657 5657 5657 5654 5649 5651 5649 5647 5654 5651 5654 5652 5653 5653 5657 5651 5643 5636 5636 5639
5561 5565 5571 5576 5585 5594 5603 5613 5622 5631 5638 5644 5649 5655 5652 5657 5660 5664 5670 5663 5643 5643 5652 5658 5659 5659 5652 5651 5646 5646 5648 5644 5645 5647 5646 5640 5635 5641 5641 5637 5634 5636 5636 5625 5612 5623 5631
5559 5564 5569 5574 5583 5592 5602 5612 5621 5631 5638 5642 5648 5651 5655 5654 5658 5664 5665 5647 5645 5653 5657 5655 5655 5650 5644 5644 5645 5641 5633 5631 5630 5635 5634 5631 5630 5636 5631 5634 5631 5631 5623 5621 5610 5599 5606
5558 5561 5567 5573 5581 5590 5600 5610 5619 5628 5636 5641 5649 5651 5650 5651 5656 5661 5656 5639 5646 5649 5652 5654 5645 5645 5639 5638 5637 5636 5629 5623 5624 5625 5629 5623 5622 5626 5627 5628 5628 5627 5620 5613 5613 5593 5597
5556 5561 5565 5571 5578 5587 5597 5607 5616 5625 5634 5640 5645 5648 5645 5649 5653 5657 5645 5640 5642 5645 5649 5648 5643 5637 5637 5633 5634 5627 5621 5620 5624 5622 5627 5623 5617 5619 5620 5618 5615 5616 5611 5606 5606 5594 5586
5554 5559 5563 5570 5575 5583 5594 5603 5613 5622 5632 5638 5640 5640 5642 5645 5645 5638 5641 5644 5639 5641 5645 5643 5643 5639 5636 5629 5625 5623 5619 5621 5619 5622 5619 5614 5612 5610 5612 5609 5609 5607 5600 5599 5587 5582 5579
5551 5556 5561 5566 5573 5580 5590 5599 5610 5619 5629 5638 5639 5638 5640 5644 5630 5628 5631 5632 5635 5637 5636 5639 5633 5637 5633 5625 5617 5620 5617 5613 5617 5619 5615 5613 5606 5604 5604 5603 5603 5599 5595 5587 5580 5568 5568
5548 5553 5559 5565 5570 5577 5586 5596 5606 5616 5624 5634 5636 5624 5634 5638 5633 5639 5633 5629 5627 5631 5629 5634 5630 5634 5629 5622 5623 5614 5612 5610 5610 5611 5596 5604 5603 5600 5596 5602 5596 5587 5587 5579 5572 5557 5567
5545 5550 5555 5559 5567 5574 5583 5593 5603 5612 5620 5629 5628 5622 5623 5623 5626 5634 5633 5630 5627 5624 5628 5631 5627 5630 5627 5612 5614 5610 5612 5608 5606 5597 5603 5604 5594 5595 5594 5594 5595 5585 5575 5572 5566 5567 5553
5545 5548 5553 5559 5565 5571 5580 5589 5598 5608 5616 5622 5623 5621 5616 5615 5622 5629 5619 5624 5626 5620 5627 5623 5625 5621 5625 5617 5617 5607 5611 5607 5606 5600 5597 5592 5585 5574 5575 5581 5583 5577 5576 5572 5565 5564 5561
5542 5546 5551 5556 5562 5568 5576 5585 5595 5605 5613 5619 5610 5613 5624 5594 5612 5621 5620 5622 5622 5624 5615 5622 5624 5618 5607 5612 5615 5610 5607 5605 5603 5596 5587 5579 5571 5560 5564 5558 5563 5560 5571 5570 5565 5565 5554
5538 5541 5546 5551 5558 5564 5572 5581 5590 5601 5608 5615 5611 5615 5607 5600 5608 5616 5617 5620 5617 5617 5615 5610 5615 5613 5602 5602 5601 5599 5594 5590 5589 5581 5578 5555 5550 5536 5540 5536 5547 5573 5570 5565 5559 5560 5559
5535 5539 5543 5548 5553 5560 5567 5576 5584 5593 5601 5607 5603 5610 5605 5583 5602 5605 5611 5610 5607 5606 5604 5605 5598 5593 5598 5597 5589 5571 5580 5567 5566 5567 5565 5560 5543 5529 5526 5529 5551 5568 5564 5556 5546 5552 5556
5531 5535 5539 5544 5549 5554 5561 5569 5577 5586 5593 5598 5595 5599 5605 5584 5595 5607 5606 5607 5603 5599 5594 5585 5583 5584 5588 5581 5572 5564 5576 5576 5579 5566 5547 5543 5536 5534 5511 5514 5528 5557 5553 5545 5543 5540 5540
5526 5530 5534 5539 5544 5549 5554 5561 5569 5578 5586 5592 5590 5592 5604 5592 5589 5597 5602 5601 5601 5598 5590 5582 5580 5577 5579 5556 5553 5556 5567 5566 5569 5552 5542 5524 5519 5520 5515 5514 5534 5550 5538 5536 5521 5525 5520
5522 5526 5529 5534 5539 5544 5548 5554 5561 5570 5577 5584 5581 5584 5594 5584 5585 5587 5590 5592 5591 5597 5587 5576 5575 5568 5554 5554 5551 5547 5545 5560 5556 5562 5549 5550 5523 5512 5501 5505 5513 5537 5529 5515 5520 5518 5514
5517 5521 5525 5530 5534 5538 5543 5547 5554 5561 5569 5574 5578 5576 5579 5585 5579 5576 5579 5583 5587 5591 5588 5574 5579 5574 5571 5555 5537 5533 5539 5522 5541 5545 5547 5542 5543 5536 5527 5537 5543 5537 5525 5522 5516 5507 5491